Regional Weather Roundup
Issued by NWS

Home | Current Version | Previous Version | Graphics & Text | Print | Product List | Glossary On
Versions: 1 2 3 4 5 6 7 8 9 10 11 12 13 14 15 16 17 18 19 20 21 22 23 24 25 26 27 28 29 30 31 32 33 34 35 36 37 38 39 40 41 42 43 44 45 46 47 48 49 50
000
ASUS43 KMPX 220001
RWRMN
WEATHER ROUNDUP FOR MINNESOTA
NATIONAL WEATHER SERVICE TWIN CITIES/CHANHASSEN MN
600 PM CST SUN JAN 21 2018


NOTE: "FAIR" INDICATES FEW OR NO CLOUDS BELOW 12,000 FEET WITH NO
SIGNIFICANT WEATHER AND/OR OBSTRUCTIONS TO VISIBILITY. N/A MEANS
CURRENT SKY AND/OR WEATHER CONDITIONS ARE NOT AVAILABLE.

MNZ060>063-068>070-220100-
   Twin Cities Metro

CITY           SKY/WX    TMP DP  RH WIND       PRES   REMARKS
TWIN CITIES    CLOUDY    37  30  75 NE8       29.95R
6HR MIN TEMP:  37; 6HR MAX TEMP:  39;

ST PAUL        CLOUDY    36  29  75 N5        29.97R
CRYSTAL        CLOUDY    36  26  67 N6        29.95S
BLAINE         CLOUDY    36  30  80 N6        29.96R
LAKEVILLE      MOCLDY    34  28  80 N8        29.93S WCI  27
EDEN PRAIRIE   CLOUDY    37  28  70 N10       29.92F
6HR MIN TEMP:  37; 6HR MAX TEMP:  40;

SOUTH ST PAUL  CLOUDY    37  29  74 N6        29.95R
LAKE ELMO      CLOUDY    36  30  80 N5        29.97R
$$
MNZ001>005-007-008-013>017-022>024-027-028-220100-
   Northwest Minnesota

CITY           SKY/WX    TMP DP  RH WIND       PRES   REMARKS
BEMIDJI        CLOUDY    24  23  97 N5        30.04S FOG     WCI  18
HALLOCK        CLOUDY    21  19  93 N3        30.12S
ROSEAU         CLOUDY    27  21  80 CALM      30.10R
WARROAD        CLOUDY    27  21  80 CALM      30.11R
CROOKSTON      FAIR      25  23  93 N6        30.11S WCI  18
FOSSTON        CLOUDY    21  21 100 N8        30.06S WCI  12
DETROIT LAKES  CLOUDY    27  27 100 N8        30.03S WCI  18
MOORHEAD       CLOUDY    25  21  86 N13       30.07S WCI  13
PARK RAPIDS    CLOUDY    27  22  81 N6        30.01S WCI  20
MAHNOMEN       CLOUDY    23  22  96 N8        30.04S WCI  14
$$
MNZ006-009>011-018-025>026-220100-
   North Central Minnesota

CITY           SKY/WX    TMP DP  RH WIND       PRES   REMARKS
BAUDETTE       CLOUDY    25  23  92 N5        30.08R WCI  19
FLAG ISLAND    CLOUDY    25  21  86 CALM      30.10R
INTL FALLS     CLOUDY    26  23  88 CALM      30.07R FOG
6HR MIN TEMP:  23; 6HR MAX TEMP:  26;

WASKISH        CLOUDY    25  25 100 CALM      30.07R FOG
BIG FORK       CLOUDY    27  25  93 CALM      30.04R
LONGVILLE      CLOUDY    25  23  93 CALM      30.02S
GRAND RAPIDS   CLOUDY    26  24  92 N6        30.04R WCI  19
CRANE LAKE     CLOUDY    23  23 100 CALM      30.08S
ORR            CLOUDY    25  21  86 CALM      30.03R
COOK           CLOUDY    25  25 100 CALM      30.04R
WALKER         CLOUDY    24  23  94 CALM      30.03S
$$
MNZ012-019>021-037-220100-
   Northeast Minnesota

CITY           SKY/WX    TMP DP  RH WIND       PRES   REMARKS
DULUTH         FOG       30  29  96 E12       30.01R VSB 1/4 WCI  20
6HR MIN TEMP:  29; 6HR MAX TEMP:  36;

HIBBING        CLOUDY    25  23  92 NE5       30.02R WCI  19
EVELETH        CLOUDY    24  21  88 CALM      30.03S
DULUTH HARBOR  CLOUDY    32  30  93 E17       30.06R FOG     WCI  21
TWO HARBORS    CLOUDY    32  27  80 NE10      30.02S HAZE    WCI  24
SILVER BAY     CLOUDY    28  28 100 E5        30.03S WCI  23
GRAND MARAIS     N/A     29  28  96 NE10      30.09R WCI  20
G MARAIS ARPRT CLOUDY    25  19  80 NE6       30.02S WCI  18
$$
MNZ029>031-032-039>041-046>048-054>057-064-220100-
   West Central Minnesota

CITY           SKY/WX    TMP DP  RH WIND       PRES   REMARKS
FERGUS FALLS   FAIR      27  25  93 N8        30.02R WCI  18
WHEATON        CLOUDY    28  25  86 N8        30.05R WCI  20
MORRIS         CLOUDY    30  28  93 N8        29.99R WCI  23
ALEXANDRIA     CLOUDY    32  27  81 N7        29.99S WCI  26
ELBOW LAKE     MOCLDY    30  28  92 N6        30.00S WCI  24
WADENA         FAIR      27  23  86 N7        30.00R WCI  19
GLENWOOD       FAIR      32  28  86 N7        29.98S WCI  26
APPLETON       CLOUDY    34  28  80 N6        29.99S WCI  29
BENSON         CLOUDY    34  30  86 N7        30.00R WCI  28
ORTONVILLE     CLOUDY    30  25  80 N8        30.01R WCI  23
MADISON        CLOUDY    34  30  86 N14       29.98F WCI  24
WILLMAR        FAIR      36  30  80 N7        30.00R
$$
MNZ033>034-036-042>043-049>051-058-059-220100-
   Central Minnesota

CITY           SKY/WX    TMP DP  RH WIND       PRES   REMARKS
ST CLOUD       CLOUDY    34  29  82 N8        29.97S WCI  27
6HR MIN TEMP:  34; 6HR MAX TEMP:  36;

SAUK CENTRE      N/A     32  28  82 N7        29.98R WCI  26
PAYNESVILLE    CLOUDY    35  31  87 N5        29.98R WCI  30
AITKIN         FAIR      28  25  86 N6        30.00R WCI  22
PINE RIVER     FAIR      23  19  86 N8        30.05S WCI  14
BRAINERD       FAIR      31  24  75 N6        30.00S WCI  25
STAPLES        CLOUDY    28  25  86 N3        30.00S
LONG PRAIRIE   FAIR      32  28  86 NW7       29.99S WCI  26
LITTLE FALLS   CLOUDY    32  23  69 N3        29.99F
LITCHFIELD     CLOUDY    36  30  80 N12       29.96S
BUFFALO        CLOUDY    35  29  78 N5        29.97S WCI  31
MAPLE LAKE     CLOUDY    35  32  87 MISG      29.97S
HUTCHINSON     CLOUDY    36  31  83 N6        29.96R
$$
MNZ037-044-045-052-053-220100-
   East Central Minnesota

CITY           SKY/WX    TMP DP  RH WIND       PRES   REMARKS
PRINCETON      CLOUDY    36  28  75 N5        29.98S
MORA           FAIR      34  28  80 CALM      30.01R
CAMBRIDGE        N/A     37  27  65 CALM      29.99R
RUSH CITY      CLOUDY    34  28  80 N6        29.99R WCI  29
MOOSE LAKE     MOCLDY    32  27  80 N5        29.99R WCI  27
HINCKLEY       CLOUDY    34  30  86 N6        30.00R WCI  29
CLOQUET        FAIR      28  27  93 E5        30.01R FOG     WCI  23
MCGREGOR       MOCLDY    32  27  80 N6        30.01S WCI  26
$$
MNZ071>073-080-081-089-090-097-098-220100-
   Southwest Minnesota

CITY           SKY/WX    TMP DP  RH WIND       PRES   REMARKS
MONTEVIDEO     CLOUDY    34  30  86 NE13      29.97F WCI  25
GRANITE FALLS  CLOUDY    36  32  86 N17       29.96S
CANBY          CLOUDY    32  30  90 N12       29.99R WCI  23
MARSHALL       CLOUDY    32  28  85 N13       29.96R WCI  22
REDWOOD FALLS  CLOUDY    35  30  82 N8        29.94R WCI  29
OLIVIA         CLOUDY    34  30  86 N8        29.95R WCI  27
PIPESTONE      CLOUDY    34  28  80 NE14G23   29.90R WCI  24
WINDOM         CLOUDY    36  19  51 N15       29.90R
WORTHINGTON    CLOUDY    34  30  85 N17       29.89R WCI  23
JACKSON        CLOUDY    34  30  86 NE15      29.88S WCI  24
TRACY          CLOUDY    33  32  94 N10       29.94R WCI  25
SLAYTON        CLOUDY    33  30  90 N20G25    29.90R WCI  21
$$
MNZ065>067-074>077-082>085-091>093-220100-
   South Central Minnesota

CITY           SKY/WX    TMP DP  RH WIND       PRES   REMARKS
MANKATO        CLOUDY    36  30  79 NE8       29.92R
NEW ULM        CLOUDY    36  28  75 NE10G16   29.92S
ST JAMES       CLOUDY    36  30  80 N10       29.92R
FAIRMONT       CLOUDY    36  32  85 N12       29.88S
FARIBAULT      CLOUDY    36  30  80 N8        29.92S
OWATONNA       CLOUDY    36  30  80 NE9       29.90S
WASECA         CLOUDY    36  32  87 NE14      29.91R
ALBERT LEA     CLOUDY    36  30  80 NE9       29.88R
$$
MNZ078>079-086>088-094>096-220100-
   Southeast Minnesota

CITY           SKY/WX    TMP DP  RH WIND       PRES   REMARKS
ROCHESTER      CLOUDY    36  30  79 N10       29.89S
6HR MIN TEMP:  36; 6HR MAX TEMP:  39;

RED WING       FAIR      37  27  65 CALM      29.93S
STANTON        CLOUDY    36  31  82 NE6       29.92R
DODGE CENTER   CLOUDY    36  28  75 N10       29.89R
WINONA         CLOUDY    37  32  81 N5        29.89F
PRESTON        CLOUDY    36  31  81 NE6       29.88F
$$
ABBREVIATIONS USED IN REMARKS
   TC - TEMPERATURES IN CELSIUS
  WCI - WIND CHILL INDEX
   HX - HEAT INDEX
  VSB - VISIBILITY
$$




USA.gov is the U.S. government's official web portal to all federal, state and local government web resources and services.